Spokane, WA
on Friday, November 23, 2012

Friday
Previous Day Next Day
Daily Summary
 ActualAverageRecord
Temperature
Mean Temperature °F / °C 33°F / 1°C  
Max Temperature 45°F / 7°C 38°F / 3°C 60°F / 15°C (1933)
Min Temperature 32°F / 0°C 28°F / -2°C -21°F / -29°C (1985)
Degree Days
Heating Degree Days 26 32  
Month to date heating degree days 577 643  
Since 1 July heating degree days 1183 1431  
Cooling Degree Days 0 0  
Month to date cooling degree days 0 0  
Year to date cooling degree days 535 450  
Moisture
Dew Point 34°F / 1°C   
Average Humidity 77    
Maximum Humidity 92    
Minimum Humidity 62    
Precipitation
Precipitation 0.18 in / 4.57 cm 0.07 in / 1.78 cm 0.77 in / 1.96 cm (1892)
Month to date precipitation 2.84 1.71  
Year to date precipitation 18.34 13.67  
Snow
Snow 0.00 in / 0.00 cm 0.30 in / 0.76 cm 6.60 in / 16.76 cm (1955)
Month to date snowfall 5.9 4.7  
Since 1 July snowfall 5.9 4.8  
Since 1 September snowfall 5.9 4.8  
Snow Depth 0.00 in / 0.00 cm   
Wind
Wind Speed 8 mph / 13 km/h   
Max Wind Speed 23 mph / 37 km/h   
Max Gust Speed 31 mph / 50 km/h   
Visibility 10 miles / 16 kilometers   
Events Rain   

Key: T is trace of precipitation, MM is missing value
Source: NWS Daily Summary
Time(PST)TemperatureDew PointHumidity Pressure Visibility Wind DirectionWind SpeedGust SpeedPrecipitationEvents Conditions
12:53 AM 34.0°F / 1.1°C 30.0°F / -1.1°C 85% 30.38 in / 1028.5 hPa 10.0 miles / 16.1 kilometers ENE 6.9 mph / 11.1 km/h - N/A   Overcast
1:53 AM 34.0°F / 1.1°C 30.0°F / -1.1°C 85% 30.38 in / 1028.5 hPa 10.0 miles / 16.1 kilometers ENE 5.8 mph / 9.3 km/h - N/A   Overcast
2:53 AM 34.0°F / 1.1°C 30.0°F / -1.1°C 85% 30.34 in / 1027.3 hPa 10.0 miles / 16.1 kilometers NE 6.9 mph / 11.1 km/h - N/A   Overcast
3:53 AM 34.0°F / 1.1°C 30.0°F / -1.1°C 85% 30.34 in / 1027.2 hPa 10.0 miles / 16.1 kilometers ENE 4.6 mph / 7.4 km/h - N/A   Overcast
4:53 AM 33.1°F / 0.6°C 30.0°F / -1.1°C 89% 30.33 in / 1027.0 hPa 10.0 miles / 16.1 kilometers NNE 5.8 mph / 9.3 km/h - N/A   Mostly Cloudy
5:53 AM 33.1°F / 0.6°C 30.0°F / -1.1°C 89% 30.32 in / 1026.5 hPa 10.0 miles / 16.1 kilometers ENE 3.5 mph / 5.6 km/h - N/A   Overcast
6:53 AM 34.0°F / 1.1°C 30.0°F / -1.1°C 85% 30.30 in / 1025.9 hPa 10.0 miles / 16.1 kilometers NE 5.8 mph / 9.3 km/h - N/A   Overcast
7:53 AM 34.0°F / 1.1°C 30.0°F / -1.1°C 85% 30.30 in / 1026.0 hPa 10.0 miles / 16.1 kilometers ENE 3.5 mph / 5.6 km/h - N/A   Overcast
8:53 AM 35.1°F / 1.7°C 30.9°F / -0.6°C 85% 30.30 in / 1025.9 hPa 10.0 miles / 16.1 kilometers NE 4.6 mph / 7.4 km/h - N/A   Overcast
9:53 AM 37.9°F / 3.3°C 30.9°F / -0.6°C 76% 30.27 in / 1024.8 hPa 10.0 miles / 16.1 kilometers Calm Calm - N/A   Overcast
10:53 AM 41.0°F / 5.0°C 30.9°F / -0.6°C 67% 30.26 in / 1024.5 hPa 10.0 miles / 16.1 kilometers SSE 9.2 mph / 14.8 km/h - N/A   Overcast
11:53 AM 43.0°F / 6.1°C 30.9°F / -0.6°C 62% 30.24 in / 1023.9 hPa 10.0 miles / 16.1 kilometers SE 5.8 mph / 9.3 km/h - N/A   Overcast
12:53 PM 42.1°F / 5.6°C 34.0°F / 1.1°C 73% 30.23 in / 1023.7 hPa 10.0 miles / 16.1 kilometers East 4.6 mph / 7.4 km/h - N/A   Overcast
1:53 PM 43.0°F / 6.1°C 35.1°F / 1.7°C 74% 30.19 in / 1022.3 hPa 10.0 miles / 16.1 kilometers SE 5.8 mph / 9.3 km/h - 0.00 in / 0.0 cm Rain Light Rain
2:53 PM 45.0°F / 7.2°C 33.1°F / 0.6°C 63% 30.17 in / 1021.6 hPa 10.0 miles / 16.1 kilometers South 11.5 mph / 18.5 km/h - 0.00 in / 0.0 cm   Overcast
3:53 PM 44.1°F / 6.7°C 35.1°F / 1.7°C 71% 30.16 in / 1021.1 hPa 10.0 miles / 16.1 kilometers South 6.9 mph / 11.1 km/h - 0.00 in / 0.0 cm Rain Light Rain
4:53 PM 42.1°F / 5.6°C 37.0°F / 2.8°C 82% 30.13 in / 1020.3 hPa 10.0 miles / 16.1 kilometers South 8.1 mph / 13.0 km/h - 0.01 in / 0.3 cm Rain Light Rain
5:53 PM 41.0°F / 5.0°C 37.0°F / 2.8°C 86% 30.13 in / 1020.1 hPa 10.0 miles / 16.1 kilometers South 9.2 mph / 14.8 km/h - 0.02 in / 0.5 cm Rain Light Rain
6:45 PM 41.0°F / 5.0°C 37.4°F / 3.0°C 87% 30.08 in / 1018.5 hPa 8.0 miles / 12.9 kilometers SSE 5.8 mph / 9.3 km/h - 0.06 in / 1.5 cm Rain Light Rain
6:53 PM 39.9°F / 4.4°C 37.0°F / 2.8°C 89% 30.13 in / 1020.2 hPa 8.0 miles / 12.9 kilometers SSE 5.8 mph / 9.3 km/h - 0.07 in / 1.8 cm Rain Light Rain
7:53 PM 39.9°F / 4.4°C 37.0°F / 2.8°C 89% 30.09 in / 1018.9 hPa 10.0 miles / 16.1 kilometers SSE 10.4 mph / 16.7 km/h - 0.03 in / 0.8 cm Rain Light Rain
8:53 PM 41.0°F / 5.0°C 37.9°F / 3.3°C 89% 30.07 in / 1018.3 hPa 10.0 miles / 16.1 kilometers South 12.7 mph / 20.4 km/h 21.9 mph / 35.2 km/h 0.00 in / 0.0 cm Rain Light Rain
9:10 PM 41.0°F / 5.0°C 37.4°F / 3.0°C 87% 30.02 in / 1016.5 hPa 10.0 miles / 16.1 kilometers South 15.0 mph / 24.1 km/h - 0.00 in / 0.0 cm Rain Light Rain
9:53 PM 42.8°F / 6.0°C 39.2°F / 4.0°C 87% 30.01 in / 1016.1 hPa 10.0 miles / 16.1 kilometers South 16.1 mph / 25.9 km/h 25.3 mph / 40.7 km/h N/A Rain Light Rain
10:26 PM 42.8°F / 6.0°C 39.2°F / 4.0°C 87% 30.02 in / 1016.5 hPa 10.0 miles / 16.1 kilometers SSW 18.4 mph / 29.6 km/h 31.1 mph / 50.0 km/h 0.01 in / 0.3 cm Rain Light Rain
10:53 PM 42.1°F / 5.6°C 39.9°F / 4.4°C 92% 30.04 in / 1017.3 hPa 10.0 miles / 16.1 kilometers SSW 17.3 mph / 27.8 km/h 27.6 mph / 44.4 km/h 0.02 in / 0.5 cm Rain Light Rain
11:30 PM 42.8°F / 6.0°C 39.2°F / 4.0°C 87% 30.03 in / 1016.8 hPa 10.0 miles / 16.1 kilometers SW 20.7 mph / 33.3 km/h 26.5 mph / 42.6 km/h 0.01 in / 0.3 cm Rain Light Rain
11:53 PM 42.1°F / 5.6°C 41.0°F / 5.0°C 96% 30.06 in / 1017.7 hPa 10.0 miles / 16.1 kilometers SW 19.6 mph / 31.5 km/h 26.5 mph / 42.6 km/h 0.02 in / 0.5 cm Rain Light Rain
Moon Phase
Nov. 23 Nov. 28 Dec. 06 Dec. 13 Dec. 20
Sunrise:07:07 AM (PST) Moon Rise:01:37 PM (PST)
Sunset:04:05 PM (PST) Moon Set:02:14 AM (PST)

Copyright © 2014 The Weather Underground, Inc.